Location: Kervinic
(48.4279°N, 4.7373°W)
Time: 10:21:27
(UTC+00:00)

Cosmos 1459 Rocket - Pass Details

Date: 09 April 2020
Orbit: 936 x 1000 km, 83.0° (Epoch: 25 May)

Event Time Altitude Azimuth Distance (km) Brightness Sun altitude
Rises 23:28:05 0° 351° (N) 3,733 8.2 -32.4°
Reaches altitude 10° 23:30:39 10° 353° (N) 2,775 7.2 -32.5°
Enters shadow 23:36:10 65° 22° (NNE) 1,082 4.2 -32.7°
